Oldham, SD (57051)

20:21 CST le 17 décembre 2014 (GMT -0600)
Arlington, SD | Change Station
CLOSE
Current Station
Stations météorologiques personnelles
Location: Arlington, SD
Altitude: 1808 ft
Stations météo à proximité

Alt. 1808 ft 44.38 °N, 97.08 °W | Updated 5 seconds ago

Ciel dégagé
Ciel dégagé
11.0 ° F
Paraît 11 ° F
N
0.0
Vent Variable Vent de Est
Gusts 0.0 mph

Aujourd'hui
Haut(e) -- | Bas -- ° F
--% Risque de précip.
Hier
Haut(e) -- | Bas -- ° F
Precip. -- pouce
7:59 AM 4:51 PM
Lune descendante, 18% visible
Pression 30.22 pouce
Visibilité 10.0 Miles terrestres
Nuages Ciel dégagé
Refroidissement éolien 11 ° F
Point de rosée 9 ° F
Humidité 91%
Précipitations 0.02 pouce
Profondeur de la couche neigeuse Non disponible.
UV 0.0 sur 12
Pollen .10 sur 12
Qualité de l'air Non disponible.
Flu Activity Non disponible.
METAR KMDS 180210Z AUTO 07007KT 10SM CLR M13/M13 A3022 RMK AO2

More Conditions Fewer Conditions

Pression 30.22 pouce
Visibilité 10.0 Miles terrestres
Nuages Ciel dégagé
Refroidissement éolien 11 ° F
Point de rosée 9 ° F
Humidité 91%
Précipitations 0.02 pouce
Profondeur de la couche neigeuse Non disponible.
UV 0.0 sur 12
Pollen .10 sur 12
Qualité de l'air Non disponible.
Flu Activity Non disponible.
METAR KMDS 180210Z AUTO 07007KT 10SM CLR M13/M13 A3022 RMK AO2

More Conditions Fewer Conditions

10-Day Weather Forecast

Almanac

Astronomie

Dec. 17, 2014 Lever Coucher
Temps réel
Crépuscule civil
Crépuscule nautique
Crépuscule astronomique
Lune
Durée de lumière visible
Longueur du jour
Tomorrow will be .
, % of the Moon is Illuminated

Extrêmes aujourd'hui

State Highs State Lows

Community

WunderPhotos

Upload Photos

1,778,859 Photos téléchargées !

WunderBlogs® & News

Nearby

Qualité de l'air

  Qualité de l'air Indice de la qualité de l'air Polluant
Not available.

Épaisseur de neige

Station Depth Altitude

Activité sismique

Ville Distance Mag. Time & Date
Minimum magnitude displayed is 2.5.

Températures des eaux côtières

Lieu Température

Stations météo à proximité